Regional Weather Roundup
Issued by NWS Columbia, SC

Home | Current Version | Previous Version | Text Only | Print | Product List | Glossary On
Versions: 1 2 3 4 5 6 7 8 9 10 11 12 13 14 15 16 17 18 19 20 21 22 23 24 25 26 27 28 29 30 31 32 33 34 35 36 37 38 39 40 41 42 43 44 45 46 47 48 49 50
000
ASUS42 KCAE 272110
RWRCAE
REGIONAL WEATHER ROUNDUP
NATIONAL WEATHER SERVICE COLUMBIA SC
400 PM EST MON FEB 27 2017

NOTE: "FAIR" INDICATES FEW OR NO CLOUDS BELOW 12,000 FEET WITH NO
SIGNIFICANT WEATHER AND/OR OBSTRUCTIONS TO VISIBILITY.

NOT ALL STATIONS ARE QUALITY CONTROLLED BY THE NATIONAL
WEATHER SERVICE. USE DATA WITH CAUTION...ESPECIALLY
DEWPOINT OBSERVATIONS.

SCZ001>056-GAZ040-063>065-077-272200-
...UPSTATE SOUTH CAROLINA...

CITY           SKY/WX    TMP DP  RH WIND       PRES   REMARKS
ANDERSON       CLOUDY    62  34  35 SW5       30.29F
LIBERTY        CLOUDY    60  32  35 W3        30.29F
SPARTANBURG    MOSUNNY   63  34  34 S5        30.28F
CLEMSON        CLOUDY    62  31  31 E3        30.30F
GREENVILLE     CLOUDY    63  31  30 CALM      30.28F
GREENWOOD      CLOUDY    65  41  41 S7        30.32F
GREER          CLOUDY    63  31  30 CALM      30.28F
ROCK HILL      CLOUDY    64  30  27 SE8       30.32F
CHESTER        MOCLDY    64  32  29 SE10      30.33F
LAURENS        CLOUDY    64  41  42 SE10      30.30F


...CENTRAL SOUTH CAROLINA...

CITY           SKY/WX    TMP DP  RH WIND       PRES   REMARKS
COLUMBIA APT   MOSUNNY   70  42  36 VRB3      30.31S
COLUMBIA OWENS SUNNY     71  41  33 S7        30.32F
MCENTIRE ANGB  PTSUNNY   70  42  36 SE9       30.31F
ORANGEBURG     MOSUNNY   71  46  40 SE6       30.30F
SUMTER SHAW    SUNNY     71  40  32 SE6       30.30F
AIKEN          FAIR      66  45  45 E5        30.34S
BARNWELL       FAIR      72  50  46 E7        30.29F
MANNING        FAIR     N/A N/A N/A MISG      30.31S
CAMDEN         FAIR      68  39  34 E5        30.33F
LANCASTER      CLOUDY    64  30  27 S6        30.34S
WINNSBORO      PTCLDY    64  37  36 E3        30.32S


...EASTERN AND COASTAL SOUTH CAROLINA...

CITY           SKY/WX    TMP DP  RH WIND       PRES   REMARKS
MYRTLE BEACH   PTSUNNY   64  52  63 E12       30.37S
N MYRTLE BCH   SUNNY     66  51  58 E8        30.36S
CONWAY         FAIR      68  50  52 SE6       30.35F HAZE
MARION         FAIR      66  45  45 SE6       30.34F
HARTSVILLE     FAIR      68  37  32 SE3       30.33F
FLORENCE       MOSUNNY   69  46  43 E5        30.33F
DARLINGTON     SUNNY     67  41  38 E3        30.34F
CHARLESTON APT MOSUNNY   72  53  51 S12       30.31S
MOUNT PLEASANT MOCLDY    72  57  60 CALM      30.32S
WALTERBORO     PTCLDY    72  50  46 SE8       30.31S
BEAUFORT       CLOUDY    72  58  61 E9        30.29S


...EASTERN GEORGIA...

CITY           SKY/WX    TMP DP  RH WIND       PRES   REMARKS
AUGUSTA BUSH F PTSUNNY   72  49  44 E7        30.28F
AUGUSTA DANIEL MOSUNNY   71  45  39 VRB6      30.30S
THOMSON        PTSUNNY   71  53  53 CALM      30.34S
WASHINGTON     FAIR      64  46  52 NE3       30.30F
CLAXTON        MOCLDY    75  58  57 E6        30.25R
SYLVANIA       MOCLDY   N/A N/A N/A SE7       30.28S
STATESBORO     MOSUNNY   75  57  54 E6        30.26S
SAVANNAH       CLOUDY    72  55  55 SE13      30.27F


...SOUTHERN NORTH CAROLINA...

CITY           SKY/WX    TMP DP  RH WIND       PRES   REMARKS
CHARLOTTE      CLOUDY    63  26  24 SE14      30.32F
MONROE         CLOUDY    63  25  23 VRB3      30.33F
WADESBORO      PTCLDY    64  20  18 SE6       30.35F
ROCKINGHAM     CLEAR     65  32  29 SE3       30.36S
RUTHERFORDTON  CLOUDY    55  29  36 CALM      30.32F
ASHEVILLE      CLOUDY    54  23  30 SE9       30.27F

$$



USA.gov is the U.S. government's official web portal to all federal, state and local government web resources and services.